Regional Weather Roundup
Issued by NWS Newport/Morehead, NC

Current Version | Previous Version | Graphics & Text | Print | Product List | Glossary On
Versions: 1 2 3 4 5 6 7 8 9 10 11 12 13 14 15 16 17 18 19 20 21 22 23 24 25 26 27 28 29 30 31 32 33 34 35 36 37 38 39 40 41 42 43 44 45 46 47 48 49 50
000 ASUS42 KMHX 091324 RWRMHX WEATHER ROUNDUP FOR EASTERN NORTH CAROLINA NATIONAL WEATHER SERVICE NEWPORT/MOREHEAD CITY NC 800 AM EST FRI DEC 09 2016 NOTE: "FAIR" INDICATES FEW OR NO CLOUDS BELOW 12,000 FEET WITH NO SIGNIFICANT WEATHER AND/OR OBSTRUCTIONS TO VISIBILITY NCZ015>017-031-032-045>047-102-103-091400- NORTH COAST CITY SKY/WX TMP DP RH WIND PRES REMARKS EDENTON CLEAR 35 23 63 CALM 30.34R ELIZABETH CITY CLEAR 30 23 75 W5 30.31R KITTY HAWK MOSUNNY 36 26 67 NW7 30.28R MANTEO CLEAR 37 22 54 N13 30.30R $$ NCZ045>047-081-094-103-104-091400- CENTRAL COAST CITY SKY/WX TMP DP RH WIND PRES REMARKS FRISCO CLEAR 40 23 50 N9 30.28R $$ NCZ095-097-098-100-101-091400- SOUTHERN COAST CITY SKY/WX TMP DP RH WIND PRES REMARKS BEAUFORT CLEAR 37 24 59 N13 30.33R CEDAR ISLAND NOT AVBL JACKSONVILLE CLEAR 35 19 52 NW9 30.34R PINEY ISLAND SUNNY N/A N/A N/A N15 30.32R WILMINGTON CLEAR 34 21 59 N7 30.36R $$ NCZ011>013-027>030-043-044-078>080-089-090>093-098-091400- COASTAL PLAIN CITY SKY/WX TMP DP RH WIND PRES REMARKS AHOSKIE CLEAR 31 19 61 CALM 30.35R CLINTON CLEAR 33 22 64 NW3 30.38R ELIZABETHTOWN CLEAR 33 21 62 CALM 30.37R GOLDSBORO CLEAR 33 17 51 W5 30.34R GREENVILLE CLEAR 32 21 64 NW3 30.35R HAVELOCK CLEAR 38 20 48 N17 30.34R KENANSVILLE CLEAR 34 19 55 NW5 30.37R KINSTON CLEAR 32 19 59 CALM 30.35R NEW BERN CLEAR 35 19 52 NW8 30.35R RICHLANDS CLEAR 33 23 66 CALM 30.36R ROCKY MOUNT CLEAR 31 19 61 NW7 30.35R WASHINGTON CLEAR 32 21 63 NW5 30.35R WHITEVILLE CLEAR 34 22 61 CALM 30.38R $$ AMZ130-135-150-152-154-156-158-170-250-252-270-ANZ085-086-088-633-658-670-091400- MARINE OBSERVATIONS STATION/POSITION TIME TEMP WIND PRES WAVE SWELL AIR SEA DIR/SP/G HT/PER HT/PER (UTC) (F) (DEG/KT/KT) (MB) (FT/S) (FT/S) CHESAPEAKE LIGHT NOT AVBL 64 E VA BEACH 1250 41 58 330/ 19/ 27 1023.5 8/ 7 DUCK 1300 37 53 330/ 19/ 21 1025.0 2 E DUCK NOT AVBL OREGON INLET 1300 52 320/ 17/ 20 1025.2 13E OREGON INLT NOT AVBL HATTERAS CG 1300 41 55 340/ 15/ 20 1025.2 DIAMOND BUOY 1250 44 75 350/ 19/ 23 1024.7 6/ 6 2/11 CAPE LOOKOUT 1300 38 340/ 17/ 20 1026.5 BEAUFORT LAB 1300 37 53 340/ 8/ 13 1026.0 30 SE NEW RVR IN 1308 44 69 10/ 17/ 25 1026.9 30 SE NEW RVR IN NOT AVBL 27 SE WRIGHTSVLE 1308 43 68 20/ 19/ 27 1026.8 5 SE WRIGHTSVLE 1308 38 61 360/ 19/ 37 1027.2 225 S CAPE HAT 1250 62 74 360/ 17/ 23 1021.9 7/ 8 3/11 41 SE CHARLESTON 1250 51 73 10/ 17/ 23 1026.5 6/ 7 $$

USA.gov is the U.S. government's official web portal to all federal, state and local government web resources and services.